Location: Unspecified
(0.0000°N, 0.0000°E)
Time: 00:37:08
(UTC+00:00)

Explorer 7 - All Passes

Search period start: 16 September 2019 00:00
Search period end: 26 September 2019 00:00
Orbit: 485 x 680 km, 50.3° (Epoch: 14 September)

Date Brightness Start Highest point End Pass type
(mag) Time Alt. Az. Time Alt. Az. Time Alt. Az.
16 Sep - 08:22:04 10° N 08:26:03 28° NE 08:29:52 10° ESE daylight
16 Sep - 10:03:10 10° W 10:06:26 19° SW 10:09:33 10° S daylight
16 Sep - 20:24:12 10° SSW 20:27:51 35° SE 20:31:42 10° ENE night (unlit)
16 Sep - 22:06:20 10° WNW 22:08:17 13° NW 22:10:18 10° NNW night (unlit)
17 Sep - 08:26:28 10° NNW 08:31:05 57° NE 08:35:25 10° SE daylight
17 Sep - 20:28:50 10° SW 20:32:48 81° SE 20:37:01 10° NE night (unlit)
18 Sep - 08:31:24 10° NW 08:36:04 67° SW 08:40:27 10° SSE daylight
18 Sep - 20:34:01 10° SW 20:37:48 43° NW 20:41:48 10° NNE visible
19 Sep - 06:57:17 10° N 07:00:33 18° NE 07:03:43 10° E daylight
19 Sep - 08:36:51 10° WNW 08:41:00 32° SW 08:44:59 10° S daylight
19 Sep - 18:59:34 10° S 19:02:30 20° SE 19:05:33 10° ENE visible
19 Sep - 20:39:51 10° W 20:42:50 20° NW 20:45:57 10° N visible
20 Sep - 07:01:14 10° NNW 07:05:36 35° NE 07:09:47 10° ESE daylight
20 Sep - 08:43:06 10° W 08:45:58 16° SW 08:48:46 10° SSW daylight
20 Sep - 19:03:45 10° SSW 19:07:27 44° SE 19:11:22 10° NE visible
21 Sep - 07:05:49 10° NNW 07:10:36 74° NE 07:15:08 10° SE daylight
21 Sep - 19:08:34 10° SW 19:12:26 76° NW 19:16:30 10° NNE visible
22 Sep - 05:33:13 10° NNE 05:35:00 12° NE 05:36:46 10° ENE daylight
22 Sep - 07:10:54 10° NW 07:15:34 53° SW 07:20:01 10° SSE daylight
22 Sep - 17:35:41 10° SSE 17:37:09 12° SE 17:38:39 10° ESE daylight
22 Sep - 19:13:56 10° WSW 19:17:26 32° NW 19:21:05 10° NNE visible
23 Sep - 05:36:15 10° N 05:40:05 23° NE 05:43:49 10° ESE daylight
23 Sep - 07:16:33 10° WNW 07:20:31 26° SW 07:24:22 10° S daylight
23 Sep - 17:38:56 10° S 17:42:08 25° SE 17:45:26 10° ENE daylight
23 Sep - 19:20:09 10° W 19:22:29 15° NW 19:24:52 10° NNW visible
24 Sep - 05:40:27 10° NNW 05:45:06 45° NE 05:49:35 10° SE daylight
24 Sep - 07:23:12 10° W 07:25:30 13° SW 07:27:46 10° SSW daylight
24 Sep - 17:43:21 10° SSW 17:47:05 59° SE 17:50:59 10° NE daylight
25 Sep - 05:45:13 10° NW 05:50:04 87° WSW 05:54:46 10° SE daylight
25 Sep - 17:48:20 10° SW 17:52:04 55° NW 17:55:56 10° NNE daylight
